Location: Moscow
(30.9132°N, 94.8252°W)
Time: 07:12:45
(UTC+00:00)

Cosmos 2082 Rocket - Pass Details

Date: 15 November 2025
Orbit: 834 x 851 km, 71.0° (Epoch: 13 December)

Event Time Altitude Azimuth Distance (km) Brightness Sun altitude
Rises 01:22:49 0° 344° (NNW) 3,382 5.4 -26.0°
Reaches altitude 10° 01:25:18 10° 348° (NNW) 2,445 4.6 -26.5°
Enters shadow 01:28:18 32° 0° (N) 1,399 3.2 -27.1°
